This demonstration page uses our WeatherBlox Daily Observations layout. Learn more.

Left ArrowRight Arrow

Hourly Observations for June 12, 2017

Temp ( °F °C ) Dew Point ( °F °C ) Humidity (%) Winds ( mph kmh ) Pressure ( in mb ) Visibility ( mi km ) Precip ( " mm )
12:51 am 00:51 Clear 74 23.3 32 undefined 21 21 NNW 7 11 29.72 1006 10 16 N/A
1:51 am 01:51 Clear 74 23.3 31 -0.6 20 20 W 5 7 29.71 1006 10 16 N/A
2:51 am 02:51 Clear 67 19.4 28 -2.2 23 23 SE 5 7 29.72 1007 10 16 N/A
3:51 am 03:51 Clear 64 17.8 26 -3.3 24 24 N N/A 29.74 1007 10 16 N/A
4:51 am 04:51 Clear 62 16.7 24 -4.4 23 23 N N/A 29.76 1008 10 16 N/A
5:51 am 05:51 Sunny 63 17.2 27 -2.8 26 26 SE 3 6 29.78 1008 10 16 N/A
6:51 am 06:51 Sunny 72 22.2 31 -0.6 22 22 S 3 6 29.79 1009 10 16 N/A
7:51 am 07:51 Sunny 74 23.3 35 1.7 24 24 SSE 5 7 29.81 1010 10 16 N/A
8:51 am 08:51 Sunny 79 26.1 33 0.6 19 19 N N/A 29.81 1009 10 16 N/A
9:51 am 09:51 Sunny 83 28.3 30 -1.1 15 15 SE 7 11 29.80 1009 10 16 N/A
10:51 am 10:51 Sunny 86 30 26 -3.3 11 11 NNW 5 7 29.79 1009 10 16 N/A
11:51 am 11:51 Sunny 90 32.2 26 -3.3 10 10 VRB 5 7 29.76 1008 10 16 N/A
12:51 pm 12:51 Sunny 91 32.8 26 -3.3 9 9 undefined N/A 29.74 1007 10 16 N/A
1:51 pm 13:51 Sunny 93 33.9 28 -2.2 10 10 VRB 6 9 29.71 1006 10 16 N/A
2:51 pm 14:51 Sunny 93 33.9 27 -2.8 9 9 VRB 7 11 29.70 1006 10 16 N/A
3:51 pm 15:51 Sunny 94 34.4 26 -3.3 9 9 VRB 6 9 29.68 1005 10 16 N/A
4:51 pm 16:51 Sunny 96 35.6 28 -2.2 9 9 NW 15 24 29.65 1004 10 16 N/A
5:51 pm 17:51 Sunny 93 33.9 29 -1.7 10 10 NW 22 35 29.66 1004 10 16 N/A
6:51 pm 18:51 Sunny 89 31.7 29 -1.7 11 11 NW 22 35 29.65 1004 10 16 N/A
7:51 pm 19:51 Clear 85 29.4 31 -0.6 14 14 NW 18 30 29.67 1005 10 16 N/A
8:51 pm 20:51 Clear 83 28.3 31 -0.6 15 15 NW 16 26 29.68 1005 10 16 N/A
9:51 pm 21:51 Clear 81 27.2 32 undefined 17 17 NW 15 24 29.70 1006 10 16 N/A
10:51 pm 22:51 Clear 78 25.6 31 -0.6 18 18 NW 13 20 29.70 1006 10 16 N/A
11:51 pm 23:51 Clear 75 23.9 30 -1.1 19 19 N 9 15 29.70 1006 10 16 N/A

Powered by AerisWeather